User: anonymous   Login
Location: Newark
(53.3333°N, 83.7500°E)
Time: 00:08:13
(UTC+00:00)
Language:

Altair - Orbit

View from above orbital plane
View from above orbital plane
View from above satellite
View from above satellite

Ground track
Ground track

The orbit data is extracted from the following two-line orbital elements,

1    50U 60009B   19316.44174516 -.00000151  00000-0 -60827-3 0  9997
2    50  47.2314  77.9003 0113150  36.1338 324.7033 12.20109151644063
Epoch (UTC): 12 November 2019 10:36:06
Eccentricity: 0.0113150
inclination: 47.2314°
perigee height: 1502 km
apogee height: 1682 km
right ascension of ascending node: 77.9003°
argument of perigee: 36.1338°
revolutions per day: 12.20109151
mean anomaly at epoch: 324.7033°
orbit number at epoch: 64406

The dashed part of the orbit path shows where the satellite is in the earth's shadow,  

DLR